Regional Weather Roundup
Issued by NWS Wakefield, VA

Home | Current Version | Previous Version | Graphics & Text | Print | Product List | Glossary On
Versions: 1 2 3 4 5 6 7 8 9 10 11 12 13 14 15 16 17 18 19 20 21 22 23 24 25 26 27 28 29 30 31 32 33 34 35 36 37 38 39 40 41 42 43 44 45 46 47 48 49 50
000
ASUS41 KAKQ 232010
RWRAKQ

REGIONAL WEATHER ROUNDUP
NATIONAL WEATHER SERVICE WAKEFIELD VA
400 PM EDT WED JUL 23 2014

Note: "fair" indicates few or no clouds below 12,000 feet with no
significant weather and/or obstructions to visibility. * = Denotes
station may not report precipitation (e.g., rain,snow,etc.),
thunder or fog.

VAZ042-051-052>054-056-232100-
NORTHERN VIRGINIA

CITY           SKY/WX    TMP DP  RH WIND       PRES   REMARKS
WASH NATIONAL  PTSUNNY   93  69  45 S12       29.86F HX  98
DULLES         PTSUNNY   91  69  48 SW13      29.86F HX  96
FORT BELVOIR   DRIZZLE   89  72  56 S6        29.87F HX  96
QUANTICO       PTSUNNY   88  76  67 S10       29.87F HX  99
FREDERICKSBRG* MOSUNNY   96  69  41 SW10      29.86F HX 101
STAFFORD*      MOSUNNY   92  68  45 SW7       29.91F HX  96
WARRENTON      MOSUNNY   92  81  69 S7        29.86F HX 111
CULPEPER*      PTSUNNY  N/A N/A N/A SW7       29.87F
MANASSAS*      SUNNY     91  73  55 S10       29.87F HX 100
LEESBURG*      MOSUNNY   95  72  46 SW12      29.87F HX 103
WINCHESTER     MOSUNNY   91  68  46 SW10G17   29.88S HX  95
$$

VAZ048-049-060>072-079>083-232100-
CENTRAL AND SOUTH CENTRAL VIRGINIA...AND NORTH CENTRAL NORTH CAROLINA

CITY           SKY/WX    TMP DP  RH WIND       PRES   REMARKS
RICHMOND       MOSUNNY   95  70  44 S14G25    29.88F HX 101
CHESTERFIELD*  MOCLDY   N/A N/A N/A SW12G17   29.90F
HANOVER        PTSUNNY   94  67  41 SW8       29.89F HX  97
TAPPAHANNOCK*  SUNNY     94  66  38 S8        29.89F HX  97
CHARLOTTSVILLE LGT RAIN  86  72  62 W12       29.90F
ORANGE*        PTSUNNY   90  64  43 S5        29.90F
LOUISA*        MOSUNNY   93  68  43 S7        29.88F HX  97
FARMVILLE*     SUNNY     95  64  36 SW12      29.89F HX  97
SOUTH HILL*    SUNNY     91  73  55 S10       29.99F HX 100
ROANOKE RAPIDS PTCLDY    91  70  49 SW9       29.94F HX  97
RALEIGH        MOSUNNY   92  72  51 SW12      29.97F HX  99
$$

VAZ088>098-232100-
SOUTHEAST VIRGINIA

CITY           SKY/WX    TMP DP  RH WIND       PRES   REMARKS
NORFOLK        MOSUNNY   85  72  65 NE8       29.92F
VIRGINIA BEACH MOSUNNY   90  71  53 S12       29.92F HX  96
NORFOLK NAVAL  PTSUNNY   91  72  53 S9        29.93F HX  98
WEST POINT*    SUNNY     94  68  43 S7        29.91F HX  98
NEWPORT NEWS   SUNNY     94  72  48 S13       29.92F HX 102
LANGLEY AFB    MOSUNNY   90  73  56 S12G17    29.91F HX  98
FORT EUSTIS    SUNNY     90  76  62 VRB6      29.90F HX 101
WILLIAMSBURG*  SUNNY     95  75  52 S7        29.92F HX 107
FRANKLIN*      MOSUNNY   90  73  58 SW6       29.93F HX  98
WAKEFIELD      MOSUNNY   91  73  55 S9        29.92F HX  99
$$

VAZ020-022-025-037-045-232100-
WESTERN AND SOUTHWEST VIRGINIA

CITY           SKY/WX    TMP DP  RH WIND       PRES   REMARKS
STAUNTON*      PTSUNNY   84  71  63 S9        29.95F
HOT SPRINGS VA MOSUNNY   77  61  56 SW12      30.12F HAZE
LYNCHBURG      MOSUNNY   93  65  39 SW9       29.94F HX  95
DANVILLE       SUNNY     92  68  45 SW9       29.94F HX  96
MARTINSVILLE   MOSUNNY   94  67  40 SW5       29.98F HX  97
ROANOKE        PTSUNNY   91  65  41 SW9       29.97F
BLACKSBURG     PTSUNNY   88  72  58 SW6       30.06F
DUBLIN*        PTSUNNY   85  66  54 NW7       30.05F
MARION*        PTSUNNY   81  72  74 SW6       30.10F
HILLSVILLE*    PTSUNNY   83  64  52 NW9       30.08F
RICHLANDS*     CLOUDY    77  70  78 SW6       30.10F
WISE*          CLOUDY    73  70  88 CALM      30.12F THUNDER
ABINGDON*      CLOUDY    83  71  68 W8        30.07F
$$

MDZ021>025-VAZ099-100-232100-
SOUTHERN MARYLAND AND THE DELMARVA PENINSULA

CITY           SKY/WX    TMP DP  RH WIND       PRES   REMARKS
PATUXENT RIVER MOSUNNY   87  77  72 SE12      29.87F HX  99
BAY BRIDGE APT   N/A     88  72  58 S10G17    29.86F
LEONARDTOWN    SUNNY     90  68  48 SW9       29.89F
DOVER          MOSUNNY   91  74  58 S14       29.85F HX 100
GEORGETOWN     SUNNY     91  70  49 SW10G20   29.88F HX  96
EASTON         MOSUNNY   91  73  55 SW12      29.91F HX 100
CAMBRIDGE      SUNNY     91  73  55 S9        29.88F HX 100
SALISBURY      NOT AVBL
OCEAN CITY     MOSUNNY   82  75  79 S10G17    29.91F
WALLOPS ISLAND SUNNY     86  75  69 S13       29.92F HX  95
ACCOMACK*        N/A     88  68  51 S9        29.91F
$$

NCZ012>017-030>032-232100-
EASTERN NORTH CAROLINA

CITY           SKY/WX    TMP DP  RH WIND       PRES   REMARKS
ELIZABETH CITY PTSUNNY   87  74  64 SW9       29.95F HX  95
AHOSKIE*       SUNNY     89  73  60 S6        29.94F HX  96
EDENTON*       MOSUNNY   88  74  61 SW7       29.96F HX  96
CURRITUCK*     PTSUNNY   91  70  49 SW6       29.96S HX  96
KILL DEVIL HLS SUNNY     86  74  66 SW6       29.95F
MANTEO         NOT AVBL
CAPE HATTERAS  MOSUNNY   84  76  76 SW12G21   30.00F
GOLDSBORO      SUNNY     91  77  63 SW12      29.95F HX 103
WASHINGTON     SUNNY     87  73  63 SW8       29.97F
GREENVILLE     MOSUNNY   90  73  58 W6        29.98F HX  98
NEW BERN       MOSUNNY   86  75  69 S10G20    30.00F HX  95
WILMINGTON     PTSUNNY   87  76  69 S10       29.99F HX  97
$$

VAZ048-232100-
ELSEWHERE

CITY           SKY/WX    TMP DP  RH WIND       PRES   REMARKS
HARRISBURG PA  MOSUNNY   93  71  48 VRB7      29.81F HX 100
BALTIMORE      PTSUNNY   91  70  49 SW8       29.84F HX  96
ANNAPOLIS      SUNNY     87  74  64 S13       29.85F HX  95
ANDREWS AFB    MOSUNNY   90  73  58 SW13      29.87F HX  98
WILMINGTON DE  MOSUNNY   89  77  67 S12       29.86F HX 101
PHILADELPHIA   PTSUNNY   91  69  48 SW14      29.85F HX  96
WILDWOOD NJ*   SUNNY     82  70  65 S18G25    29.89F
ATLANTIC CITY  SUNNY     83  70  64 S14G21    29.88F
HENDERSON NC   SUNNY     91  66  43 SW5       29.96F
GREENSBORO     MOSUNNY   90  70  51 SW9G20    29.97F HX  95
ROCKY MOUNT    PTSUNNY   91  73  55 SW7       29.96F HX  99
FAYETTEVILLE   PTSUNNY   86  73  65 SW9       29.97F
CHARLOTTE      MOSUNNY   89  68  49 S7        30.00F
$$

VAZ100-232100-
MARINE

STATION/POSITION TIME  TEMP    WIND        PRES    WAVE   SWELL
                       AIR SEA DIR/SP/G            HT/PER HT/PER
                 (UTC) (F)     (DEG/KT/KT) (MB)    (FT/S) (FT/S)
44066 TX TWR #4  2000   75 75  210/ 12/ 14 1012.5F   2/ 7   2/ 7
CAPE MAY NJ      2000   78 79  150/ 13/ 18 1011.2F
LEWES DE         2000   85 73  170/ 10/ 14 1011.3F
15NM E FENWICK I 2000   78 77              1012.7F   2/ 7
OCEAN-CITY-INLET 2000   76 76  200/ 10/ 13 1012.5F
WACHAPREAGUE VA  2000   84 84  190/ 11/ 14 1012.8F
THOMAS POINT MD  2000   82 80  170/ 19/ 20 1011.4F
GOOSES REEF MD   2000   81     180/ 14/ 17 1012.1F
COVE POINT MD    2000   81     180/ 16/ 18 1011.7F
SOLOMONS ISLAND  2000      82                N/A
BISHOPS HEAD MD  2000   84 84  180/ 16/ 18 1011.6F
PINEY POINT MD   2000          220/  9/ 11   N/A
POTOMAC MD       2000   83     160/ 14/ 16 1011.3F
CAMBRIDGE MD     2000   88 80  170/  7/ 16 1011.5F
LEWISETTA VA     2000   88 84  210/ 11/ 14 1011.5F
RAPPAHANNOCK LGT 2000          180/ 11/ 12 1013.5F
STINGRAY PT      2000   81     170/ 14/ 16 1013.7F
YORK RVR RNG VA  2000   86     210/ 10/ 12 1012.3F
YORKTOWN VA      2000   88 81  260/  9/ 12 1012.5F
JAMESTOWN VA     2000   87     220/  8/ 12   N/A
DOMINION TERM VA 2000   85     210/  9/ 10 1013.5F
KIPTOPEKE VA     2000      81  180/ 10/ 11   N/A
CHES BAY BRIDGE  2000   81 80   60/  8/  9 1013.1F
CAPE HENRY VA    2000   81     130/ 12/ 16 1012.5F
WILLOUBY STN VA  2000          240/  8/  9 1012.8F
S CRANEY ISL VA  2000          190/  5/  9 1013.5F
CAPE HENRY BUOY  2000      79                N/A     2/ 8
1ST LANDING BUOY 2000   81     120/ 12/ 14 1013.2F
CAPE CHARLES BUO 2000      78                N/A     2/ 8
OFFSHORE WE BUOY 2000      79                N/A     2/ 7
64NM E OF VA BCH 2000   78 80  200/  8/ 10 1014.3F   2/ 6   2/ 6
DUCK PIER NC     2000   84 74  220/  7/ 10 1013.9S
44056 DUCK FRF   2000                        N/A     2/ 5
OREGON INLET NC  2000   81 81  180/ 17/ 19 1014.8F
HATTERAS NC      2000   82 82  200/ 12/ 16 1016.1F
DIAMOND SHLS NC  2000          VRB 19/ 23  1015.2F   4/ 5   2/ 7
CAPE LOOKOUT NC  1900   81     180/ 11/ 12 1016.7R
$$


USA.gov is the U.S. government's official web portal to all federal, state and local government web resources and services.